Regional Weather Roundup
Issued by NWS

Home | Current Version | Previous Version | Text Only | Print | Product List | Glossary Off
Versions: 1 2 3 4 5 6 7 8 9 10 11 12 13 14 15 16 17 18 19 20 21 22 23 24 25 26 27 28 29 30 31 32 33 34 35 36 37 38 39 40 41 42 43 44 45 46 47 48 49 50

000
ASUS43 KMPX 281201
RWRMN
WEATHER ROUNDUP FOR MINNESOTA
NATIONAL WEATHER SERVICE TWIN CITIES/CHANHASSEN MN
700 AM CDT MON JUL 28 2014


NOTE: "FAIR" INDICATES FEW OR NO CLOUDS BELOW 12,000 FEET WITH NO
SIGNIFICANT WEATHER AND/OR OBSTRUCTIONS TO VISIBILITY. N/A MEANS
CURRENT SKY AND/OR WEATHER CONDITIONS ARE NOT AVAILABLE.

MNZ060>063-068>070-281300-
   Twin Cities Metro

CITY           SKY/WX    TMP DP  RH WIND       PRES   REMARKS
TWIN CITIES    CLOUDY    64  58  80 N5        30.19R
6HR MIN TEMP:  63; 6HR MAX TEMP:  65;

ST PAUL        CLOUDY    63  56  78 NW6       30.19R
CRYSTAL        CLOUDY    64  57  78 NW6       30.18R
BLAINE         CLOUDY    64  59  82 N5        30.19R
LAKEVILLE      CLOUDY    63  57  82 NW6       30.19R
EDEN PRAIRIE   CLOUDY    65  58  78 N3        30.18R
6HR MIN TEMP:  64; 6HR MAX TEMP:  65;

SOUTH ST PAUL  CLOUDY    64  55  74 N5        30.18R
LAKE ELMO      CLOUDY    61  59  94 NW3       30.19S
$$
MNZ001>005-007-008-013>017-022>024-027-028-281300-
   Northwest Minnesota

CITY           SKY/WX    TMP DP  RH WIND       PRES   REMARKS
BEMIDJI        MOCLDY    57  55  91 W6        30.23R
HALLOCK        MOCLDY    57  55  94 NW5       30.26R
ROSEAU         PTCLDY    55  52  88 W6        30.24R
WARROAD        CLEAR     55  52  88 W5        30.24R
THIEF RVR FALL CLOUDY    59  55  88 NW7       30.25S
CROOKSTON      CLOUDY    57  55  94 NW5       30.27R
FOSSTON        CLOUDY    57  54  88 CALM      30.25S
DETROIT LAKES  MOCLDY    59  57  94 NW5       30.26S
MOORHEAD       CLOUDY    61  59  94 N6        30.27R
PARK RAPIDS    CLOUDY    59  55  87 NW6       30.23R
$$
MNZ006-009>011-018-025>026-281300-
   North Central Minnesota

CITY           SKY/WX    TMP DP  RH WIND       PRES   REMARKS
BAUDETTE       SUNNY     57  55  93 W5        30.22S
FLAG ISLAND    SUNNY     57  55  94 NW8       30.21R
INTL FALLS     SUNNY     52  50  93 W3        30.19R
6HR MIN TEMP:  47; 6HR MAX TEMP:  52;

WASKISH        SUNNY     55  55 100 CALM      30.22R FOG
LONGVILLE      PTCLDY    57  55  94 CALM      30.22R
GRAND RAPIDS   PTSUNNY   57  54  88 NW5       30.21R
CRANE LAKE     SUNNY     46  46 100 CALM      30.20R
ORR            SUNNY     55  52  88 NW3       30.17R
COOK           MOSUNNY   52  52 100 CALM      30.19R
$$
MNZ012-019>021-037-281300-
   Northeast Minnesota

CITY           SKY/WX    TMP DP  RH WIND       PRES   REMARKS
DULUTH         CLOUDY    58  53  84 NW5       30.17R
6HR MIN TEMP:  56; 6HR MAX TEMP:  58;

ELY            PTSUNNY   54  52  94 W5        30.16S
HIBBING        PTSUNNY   58  53  84 CALM      30.19R
EVELETH        SUNNY     57  52  82 W3        30.19S
DULUTH HARBOR  CLOUDY    61  55  82 CALM      30.17R
TWO HARBORS    PTSUNNY   57  52  82 NW3       30.14S
SILVER BAY     SUNNY     57  55  94 CALM      30.13S
GRAND MARAIS     N/A     61  53  75 NW7       30.10R
G MARAIS ARPRT   N/A     54  48  82 NW3       30.13S
$$
MNZ029>031-032-039>041-046>048-054>057-064-281300-
   West Central Minnesota

CITY           SKY/WX    TMP DP  RH WIND       PRES   REMARKS
FERGUS FALLS   CLOUDY    59  55  88 N7        30.25S
WHEATON        CLOUDY    57  55  94 NW5       30.27S
MORRIS         CLOUDY    61  59  94 NW6       30.24R
ALEXANDRIA     CLOUDY    62  58  86 N6        30.25S
ELBOW LAKE     CLOUDY    59  58  96 NW6       30.25R
WADENA         CLOUDY    57  55  94 NW6       30.23S
GLENWOOD       CLOUDY    61  57  88 N7        30.24S
APPLETON       CLOUDY    63  57  82 NW5       30.24R
BENSON         CLOUDY    61  59  94 N5        30.23S
ORTONVILLE     CLOUDY    61  55  82 N8        30.25S
MADISON        MOCLDY    63  61  94 NW8       30.24S
WILLMAR        MOCLDY    63  59  88 NW7       30.24S
$$
MNZ033>034-036-042>043-049>051-058-059-281300-
   Central Minnesota

CITY           SKY/WX    TMP DP  RH WIND       PRES   REMARKS
ST CLOUD       CLOUDY    63  58  83 NW6       30.21R
6HR MIN TEMP:  63; 6HR MAX TEMP:  64;

SAUK CENTRE    CLOUDY    61  57  88 NW8       30.23S
PAYNESVILLE    CLOUDY    59  57  92 W6        30.23R
AITKIN         CLOUDY    63  55  77 CALM      30.20R
PINE RIVER     CLOUDY    61  55  82 CALM      30.25R
BRAINERD       CLOUDY    61  57  87 NW6       30.22R
STAPLES        CLOUDY    57  55  94 NW3       30.23R
LONG PRAIRIE   CLOUDY    59  55  88 NW5       30.23S
LITTLE FALLS   CLOUDY    61  54  77 CALM      30.22R
LITCHFIELD     CLOUDY    63  63 100 NW6       30.22R
BUFFALO        CLOUDY    64  57  80 W7        30.21R
MAPLE LAKE     CLOUDY    63  60  89 NW5       30.22R
$$
MNZ037-044-045-052-053-281300-
   East Central Minnesota

CITY           SKY/WX    TMP DP  RH WIND       PRES   REMARKS
PRINCETON      CLOUDY    63  57  82 NW5       30.20R
MORA           CLOUDY    59  54  82 CALM      30.21S
CAMBRIDGE      CLOUDY    63  54  72 CALM      30.18S
RUSH CITY      CLOUDY    59  56  91 CALM      30.19R
MOOSE LAKE     CLOUDY    57  54  88 CALM      30.18R
HINCKLEY       CLOUDY    59  55  88 CALM      30.19R
CLOQUET        CLOUDY    55  54  94 W3        30.18S
MCGREGOR       CLOUDY    57  55  94 NW3       30.21R
$$
MNZ071>073-080-081-089-090-097-098-281300-
   Southwest Minnesota

CITY           SKY/WX    TMP DP  RH WIND       PRES   REMARKS
MONTEVIDEO     CLOUDY    61  59  94 NW5       30.25R
GRANITE FALLS  CLOUDY    60  59  96 W6        30.25R
CANBY          CLOUDY    60  57  90 NW6       30.26S
MARSHALL       CLOUDY    59  55  88 NW7       30.23R
REDWOOD FALLS  CLOUDY    62  60  93 NW6       30.22R
OLIVIA         CLOUDY    61  59  94 NW5       30.22R
PIPESTONE      CLOUDY    57  55  94 N8        30.26R
WINDOM         CLOUDY    61  57  88 NW8       30.23R
WORTHINGTON    CLOUDY    59  55  88 NW8       30.25R
JACKSON        CLOUDY    61  55  82 N7        30.23R
TRACY          CLOUDY    60  59  95 CALM      30.25R
SLAYTON        CLOUDY    59  58  96 CALM      30.26R
$$
MNZ065>067-074>077-082>085-091>093-281300-
   South Central Minnesota

CITY           SKY/WX    TMP DP  RH WIND       PRES   REMARKS
MANKATO        CLOUDY    61  55  82 NW3       30.20S
NEW ULM        CLOUDY    63  63 100 NW7       30.21S
ST JAMES       MOCLDY    61  59  94 NW5       30.22S
FAIRMONT       CLOUDY    61  57  88 NW3       30.21R
GLENCOE        MOCLDY    63  59  87 NW5       30.20R
FARIBAULT      MOCLDY    64  55  72 NW3       30.20R
OWATONNA       MOCLDY    61  57  88 NW5       30.20R
WASECA         CLOUDY    55  54  94 NW3       30.21S
ALBERT LEA     MOCLDY    57  55  94 CALM      30.20R
$$
MNZ078>079-086>088-094>096-281300-
   Southeast Minnesota

CITY           SKY/WX    TMP DP  RH WIND       PRES   REMARKS
ROCHESTER      PTSUNNY   58  55  90 W6        30.19R
6HR MIN TEMP:  57; 6HR MAX TEMP:  59;

RED WING       CLOUDY    57  57 100 CALM      30.17R
STANTON        CLOUDY    62  59  90 CALM      30.18R
DODGE CENTER   CLOUDY    61  57  88 NW3       30.19S
WINONA         CLOUDY    59  57  94 NW3       30.17R
AUSTIN         CLOUDY    61  55  82 CALM      30.19R
PRESTON        CLOUDY    56  56 100 CALM      30.18R
$$
ABBREVIATIONS USED IN REMARKS
   TC - TEMPERATURES IN CELSIUS
  WCI - WIND CHILL INDEX
   HX - HEAT INDEX
  VSB - VISIBILITY
$$


USA.gov is the U.S. government's official web portal to all federal, state and local government web resources and services.